Satellite: AO-40 Catalog number: 26609 Epoch time: 02284.71971065 Element set: 270 Inclination: 7.6577 deg RA of node: 89.1063 deg Eccentricity: 0.7930951 Arg of perigee: 99.1652 deg Mean anomaly: 348.1621 deg Mean motion: 1.25597662 rev/day Decay rate: -4.30000e-06 rev/day^2 Epoch rev: 895 Checksum: 321